COSMOS 619

Satellite information

Favourite Embed

Satellite Type and Status

PAYLOADIN ORBIT

Key statistics

Satellite COSMOS 619 at a glance.

Uptime

18830

Days in orbit

Revolutions

≈ 12.5

Per day

Orbit

LEO

Low Earth Orbit

Inclination

74.0

Latest

Satellite identification and parameters

Extended collection of information and parameters for COSMOS 619.

Object identification

Identified? True

Debris? False

Object name: COSMOS 619

International designator: 1973-104C

Object number (NORAD): 6987

Object ID (CCSDS): 6987

Country: COMMONWEALTH OF INDEPENDENT STATES (CIS)

Current information (Y/N): Y

RCS size: MEDIUM

Orbital parameters

Period: 114.995 minutes

Inclination: 74.0315 deg

SMA: 7833.331 km

Apoapsis: 1486.851 km

Periapsis: 1423.542 km

RAAN: 321.3739 deg

Eccentricy: 0.004041

Argument of periapsis: 148.463 deg

Mean anomaly: 211.8857 deg

Mean motion: 12.52226868 rev/day

Mean motion (dot): -0.00000017 rev/day2

B* drag term: -0.0000074053 1/REarth

Two-line elements (TLE)

Creation date: July 9, 2025, 2:22 a.m.

Reference frame: TEME

Reference center: EARTH

Epoch: July 8, 2025, 4:44 p.m. UTC

TLE line 0: 0 COSMOS 619

TLE line 1: 1 06987U 73104C 25189.69771456 -.00000017 00000-0 -74053-5 0 9999

TLE line 2: 2 06987 74.0315 321.3739 0040410 148.4630 211.8857 12.52226868356597

Live tracking on map

Real-time ground track for satellite COSMOS 619.

In-orbit conjunctions

There are no conjunctions computed for COSMOS 619, at the moment. Check back to stay up to date, as we update our databases every day.

Go to all conjunctions

Associated space launch

Military communications satellites

COSMOS 619 was lifted into orbit during the mission ‘Kosmos-3M | Strela-1M 57-64’, on board a Kosmos-3M space rocket.

The launch took place on Dec. 19, 1973, 9:43 a.m. from 132/2.

For more information about the launch, click the button.

Launch to space Kosmos-3M | Strela-1M 57-64
Kosmos-3M | Strela-1M 57-64

Agency: N/A

Status: Launch Successful

Launch date: Dec. 19, 1973, 9:43 a.m. UTC

Rocket: Kosmos-3M

Launch pad: 132/2

Location: Plesetsk Cosmodrome, Russian Federation

...

Latest news about this satellite

There are no fresh news available about this satellite. Check back as we update our databases every day.


Newsletter sign-up

Weekly statistics, charts and insights to help you stay on top of the space industry.